Terminal Aerodrome Forecast
Issued by NWS Jackson, KY

Home | Current Version | Previous Version | Text Only | Print | Product List | Glossary On
Versions: 1 2 3 4 5 6 7 8 9 10 11 12 13 14 15 16 17 18 19 20 21 22
000
FTUS43 KJKL 080331 AAB
TAFJKL
TAF AMD
KJKL 080331Z 0804/0824 VRB03KT 2SM -RA BR SCT005 BKN022
     FM080430 VRB03KT 2SM -RA BR VCTS SCT025CB BKN050 OVC120
     FM080800 VRB03KT 3SM BR VCSH SCT025 BKN050 OVC100
     FM081300 23005KT 5SM BR VCTS OVC015CB=

USA.gov is the U.S. government's official web portal to all federal, state and local government web resources and services.